CW9161 Weather Reports


time (UTC)temp
C
wind
direction
speed
KPH
gust
KPH
rain 1hr
cm
rain 24hr
cm
rain mn
cm
humidity
%
barometer
mb
20260503211512 24 332 0.0 9.7 0.00 0.00 0.00 45 1013.2
20260503211004 23 287 1.6 9.7 0.00 0.00 0.00 45 1013.3
20260503210505 24 5 1.6 3.2 0.00 0.00 0.00 46 1013.2
20260503210014 23 277 1.6 3.2 0.00 0.00 0.00 44 1013.3
20260503205506 23 293 1.6 9.7 0.00 0.00 0.00 45 1013.4
20260503205007 23 311 3.2 9.7 0.00 0.00 0.00 44 1013.4
20260503204512 23 200 1.6 6.4 0.00 0.00 0.00 46 1013.5
20260503204008 23 30 1.6 8.0 0.00 0.00 0.00 46 1013.7
20260503203507 23 292 1.6 8.0 0.00 0.00 0.00 45 1013.8
20260503203016 22 271 1.6 4.8 0.00 0.00 0.00 47 1013.8
20260503202507 22 352 1.6 4.8 0.00 0.00 0.00 48 1013.8
20260503202008 22 315 1.6 9.7 0.00 0.00 0.00 47 1013.8
20260503201512 22 287 3.2 9.7 0.00 0.00 0.00 47 1014.0
20260503201004 22 5 1.6 4.8 0.00 0.00 0.00 50 1014.0
20260503200509 22 275 1.6 4.8 0.00 0.00 0.00 47 1014.1
20260503200012 23 272 1.6 6.4 0.00 0.00 0.00 48 1014.1
20260503195508 23 306 1.6 8.0 0.00 0.00 0.00 47 1014.2
20260503195007 22 295 3.2 8.0 0.00 0.00 0.00 47 1014.3
20260503194511 22 53 1.6 6.4 0.00 0.00 0.00 50 1014.3
20260503194004 22 277 1.6 4.8 0.00 0.00 0.00 50 1014.4
20260503193504 22 34 1.6 6.4 0.00 0.00 0.00 52 1014.4
20260503193014 22 305 1.6 6.4 0.00 0.00 0.00 51 1014.5
20260503192508 22 291 3.2 4.8 0.00 0.00 0.00 52 1014.6
20260503192011 22 304 1.6 4.8 0.00 0.00 0.00 52 1014.6
20260503191513 22 277 1.6 6.4 0.00 0.00 0.00 54 1014.7
20260503191009 22 109 1.6 8.0 0.00 0.00 0.00 52 1014.6
20260503190504 22 293 3.2 9.7 0.00 0.00 0.00 49 1014.7
20260503190017 22 202 3.2 9.7 0.00 0.00 0.00 50 1014.8
20260503185504 21 296 3.2 6.4 0.00 0.00 0.00 52 1014.8
20260503185008 21 257 1.6 6.4 0.00 0.00 0.00 49 1014.8
20260503184517 21 196 1.6 11.3 0.00 0.00 0.00 50 1014.8
20260503184009 21 300 3.2 11.3 0.00 0.00 0.00 52 1014.9
20260503183507 22 286 1.6 3.2 0.00 0.00 0.00 53 1014.8
20260503183017 22 201 0.0 6.4 0.00 0.00 0.00 57 1014.8
20260503182509 21 17 3.2 6.4 0.00 0.00 0.00 53 1014.8
20260503182009 21 164 0.0 4.8 0.00 0.00 0.00 55 1014.8
20260503181514 21 81 1.6 4.8 0.00 0.00 0.00 57 1014.9
20260503181004 20 78 0.0 8.0 0.00 0.00 0.00 56 1015.0
20260503180504 20 90 1.6 8.0 0.00 0.00 0.00 61 1015.0
20260503180016 20 77 3.2 6.4 0.00 0.00 0.00 57 1015.0
20260503175505 20 30 1.6 4.8 0.00 0.00 0.00 60 1014.9
20260503175006 20 60 1.6 4.8 0.00 0.00 0.00 60 1015.0
20260503174515 18 275 1.6 4.8 0.00 0.00 0.00 63 1015.1
20260503174007 18 277 3.2 3.2 0.00 0.00 0.00 60 1015.2
20260503173507 19 301 1.6 3.2 0.00 0.00 0.00 62 1015.2
20260503173016 19 351 0.0 3.2 0.00 0.00 0.00 62 1015.2
20260503172510 18 22 0.0 3.2 0.00 0.00 0.00 63 1015.1
20260503172008 18 28 1.6 3.2 0.00 0.00 0.00 63 1015.1
20260503171514 18 22 1.6 3.2 0.00 0.00 0.00 64 1015.1
20260503171008 17 5 0.0 3.2 0.00 0.00 0.00 66 1015.1
20260503170506 17 5 1.6 3.2 0.00 0.00 0.00 66 1015.2
20260503151009 16 297 0.0 0.0 0.00 0.00 0.00 67 1014.8
20260503150503 16 297 0.0 0.0 0.00 0.00 0.00 67 1014.7
20260503131009 15 39 3.2 6.4 0.00 0.00 0.00 66 1014.4
20260503130509 15 52 3.2 4.8 0.00 0.00 0.00 64 1014.5
20260503110507 16 83 0.0 0.0 0.00 0.00 0.00 71 1014.9
20260503090510 16 15 0.0 0.0 0.00 0.00 0.00 64 1015.3
20260503081525 16 15 0.0 3.2 0.00 0.00 0.00 61 1015.4
20260503081012 16 15 0.0 3.2 0.00 0.00 0.00 61 1015.4
20260503080508 16 15 0.0 3.2 0.00 0.00 0.00 60 1015.4
20260503072509 16 33 1.6 3.2 0.00 0.00 0.00 58 1015.4
20260503072010 17 40 0.0 3.2 0.00 0.00 0.00 57 1015.3
20260503071522 16 41 0.0 3.2 0.00 0.00 0.00 58 1015.4
20260503071009 16 54 0.0 3.2 0.00 0.00 0.00 59 1015.4
20260503070503 16 58 1.6 3.2 0.00 0.00 0.00 57 1015.4
20260503054511 16 12 4.8 11.3 0.00 0.00 0.00 52 1015.1
20260503054004 16 19 4.8 11.3 0.00 0.00 0.00 52 1015.0
20260503053016 17 30 4.8 9.7 0.00 0.00 0.00 51 1015.2
20260503052010 16 36 4.8 9.7 0.00 0.00 0.00 51 1015.2
20260503051518 17 49 4.8 12.9 0.00 0.00 0.00 50 1015.1
20260503051009 17 44 4.8 12.9 0.00 0.00 0.00 50 1015.1
20260503050508 17 56 3.2 9.7 0.00 0.00 0.00 52 1015.2
20260503050034 17 28 3.2 8.0 0.00 0.00 0.00 52 1015.2
20260503045512 17 13 3.2 8.0 0.00 0.00 0.00 51 1015.2
20260503045013 17 40 3.2 8.0 0.00 0.00 0.00 54 1015.1
20260503044525 17 5 3.2 9.7 0.00 0.00 0.00 55 1015.1
20260503044004 17 13 3.2 9.7 0.00 0.00 0.00 56 1015.0
20260503043504 17 35 1.6 11.3 0.00 0.00 0.00 56 1015.0
20260503043014 17 263 4.8 11.3 0.00 0.00 0.00 55 1014.9
20260503042006 17 276 3.2 11.3 0.00 0.00 0.00 55 1014.7
20260503041518 18 350 1.6 20.9 0.00 0.00 0.00 55 1014.7
20260503041008 18 288 3.2 20.9 0.00 0.00 0.00 54 1014.7
20260503040024 18 331 3.2 12.9 0.00 0.00 0.00 56 1014.6
20260503035508 17 51 4.8 12.9 0.00 0.00 0.00 56 1014.5
20260503035010 17 299 3.2 12.9 0.00 0.00 0.00 57 1014.5
20260503034524 17 247 3.2 12.9 0.00 0.00 0.00 59 1014.3
20260503034010 17 281 3.2 12.9 0.00 0.00 0.00 59 1014.3
20260503033508 17 28 3.2 11.3 0.00 0.00 0.00 60 1014.2
20260503033011 17 298 3.2 11.3 0.00 0.00 0.00 61 1014.2
20260503032005 17 9 3.2 16.1 0.00 0.00 0.00 61 1014.0
20260503031516 17 39 4.8 16.1 0.00 0.00 0.00 61 1014.0
20260503031006 18 241 1.6 4.8 0.00 0.00 0.00 61 1013.9
20260503030024 18 47 1.6 9.7 0.00 0.00 0.00 1013.8
20260503024010 18 285 3.2 9.7 0.00 0.00 0.00 59 1013.7
20260503023510 19 304 1.6 9.7 0.00 0.00 0.00 59 1013.7
20260503023024 19 292 1.6 6.4 0.00 0.00 0.00 59 1013.7
20260503022507 19 302 3.2 6.4 0.00 0.00 0.00 59 1013.7
20260503022012 19 310 1.6 6.4 0.00 0.00 0.00 59 1013.6
20260503021520 20 296 1.6 4.8 0.00 0.00 0.00 60 1013.6
20260503020506 20 275 1.6 4.8 0.00 0.00 0.00 59 1013.7
20260503020022 20 21 3.2 6.4 0.00 0.00 0.00 58 1013.8
20260503015006 20 324 1.6 4.8 0.00 0.00 0.00 58 1013.9
20260503014522 20 285 1.6 4.8 0.00 0.00 0.00 58 1014.0
20260503014009 20 352 1.6 6.4 0.00 0.00 0.00 58 1014.0
20260503013509 20 5 1.6 6.4 0.00 0.00 0.00 58 1014.1
20260503012511 20 313 1.6 6.4 0.00 0.00 0.00 57 1014.2
20260503012012 20 325 1.6 6.4 0.00 0.00 0.00 57 1014.1
20260503011524 20 5 1.6 4.8 0.00 0.00 0.00 57 1014.1
20260503011010 20 313 1.6 4.8 0.00 0.00 0.00 56 1014.1
20260503010508 20 188 1.6 4.8 0.00 0.00 0.00 55 1014.0
20260503010022 21 17 1.6 4.8 0.00 0.00 0.00 56 1013.9
20260503005509 21 17 1.6 4.8 0.00 0.00 0.00 55 1014.0
20260503004013 21 335 1.6 4.8 0.00 0.00 0.00 56 1014.1
20260503002508 21 332 1.6 6.4 0.00 0.00 0.00 56 1014.2
20260503001010 21 346 1.6 4.8 0.00 0.00 0.00 56 1014.2
20260503000510 21 313 1.6 9.7 0.00 0.00 0.00 56 1014.3
20260503000024 21 24 1.6 9.7 0.00 0.00 0.00 59 1014.3
20260502235007 21 294 1.6 4.8 0.00 0.00 0.00 57 1014.3
20260502233509 21 311 1.6 4.8 0.00 0.00 0.00 56 1014.5
20260502232513 21 327 1.6 4.8 0.00 0.00 0.00 60 1014.7
20260502232012 21 230 1.6 6.4 0.00 0.00 0.00 58 1014.9
20260502231526 21 327 1.6 6.4 0.00 0.00 0.00 58 1014.6
20260502231010 21 284 1.6 8.0 0.00 0.00 0.00 59 1014.9
20260502230509 21 319 3.2 8.0 0.00 0.00 0.00 60 1014.9
20260502230033 21 268 3.2 6.4 0.00 0.00 0.00 60 1015.1
20260502225508 21 5 1.6 8.0 0.00 0.00 0.00 62 1015.0
20260502225016 20 274 3.2 8.0 0.00 0.00 0.00 59 1015.1
20260502224517 21 246 1.6 14.5 0.00 0.00 0.00 60 1015.1
20260502224008 20 11 4.8 14.5 0.00 0.00 0.00 59 1015.2
20260502223508 20 294 1.6 8.0 0.00 0.00 0.00 60 1015.2
20260502223020 21 34 3.2 8.0 0.00 0.00 0.00 59 1015.3
20260502222510 20 310 3.2 6.4 0.00 0.00 0.00 61 1015.3
20260502222011 20 312 3.2 6.4 0.00 0.00 0.00 58 1015.4
20260502221523 20 50 3.2 6.4 0.00 0.00 0.00 59 1015.4
20260502221011 20 69 3.2 6.4 0.00 0.00 0.00 60 1015.5
20260502215008 20 296 1.6 6.4 0.00 0.00 0.00 61 1015.5
20260502213020 20 311 1.6 9.7 0.00 0.00 0.00 61 1015.7
20260502212511 20 246 3.2 8.0 0.00 0.00 0.00 60 1015.8
20260502212008 20 302 3.2 6.4 0.00 0.00 0.00 61 1015.9